User: anonymous   Login
Location: Hancock Field Station
(44.9202°N, 120.4259°W)
Time: 16:28:58
(UTC-07:00)
Language:

Nadezhda 4 Rocket - Orbit

View from above orbital plane
View from above orbital plane
View from above satellite
View from above satellite

Ground track
Ground track

The orbit data is extracted from the following two-line orbital elements,

1 23180U 94041B   15212.18560296  .00000108  00000-0  92139-4 0  9997
2 23180 082.9447 082.2523 0028873 353.5876 121.9660 13.77900040 58297
Epoch (UTC): 31 July 2015 04:27:16
Eccentricity: 0.0028873
inclination: 82.9447°
perigee height: 950 km
apogee height: 992 km
right ascension of ascending node: 82.2523°
argument of perigee: 353.5876°
revolutions per day: 13.77900040
mean anomaly at epoch: 121.9660°
orbit number at epoch: 5829

The dashed part of the orbit path shows where the satellite is in the earth's shadow,  

DLR